User: anonymous   Login
Location: Unspecified
(0.0000°N, 0.0000°E)
Time: 22:32:32
(UTC+00:00)
Language:

DUBAISAT 1 - Orbit

View from above orbital plane
View from above orbital plane
View from above satellite
View from above satellite

Ground track
Ground track

The orbit data is extracted from the following two-line orbital elements,

1 35682U 09041B   19080.01083952 -.00000067  00000-0 -37206-5 0  9992
2 35682  97.7358 278.2255 0010086 262.5009  97.5020 14.68721411516410
Epoch (UTC): 21 March 2019 00:15:36
Eccentricity: 0.0010086
inclination: 97.7358°
perigee height: 658 km
apogee height: 672 km
right ascension of ascending node: 278.2255°
argument of perigee: 262.5009°
revolutions per day: 14.68721411
mean anomaly at epoch: 97.5020°
orbit number at epoch: 51641

The dashed part of the orbit path shows where the satellite is in the earth's shadow,  

DLR